Lexington Weather

Lexington, Massachusetts, USA

54°F
5/18/2024 12:10am 
  • Lexington Conditions: Clear
  • Temperature: 54.3°F / 12.4°CColder 1.5°F than last hour.
  • Dew Point: 49.8°FDecreased 0.6°Fsince last hour.
  • Relative Humidity: 85%Increased 3.0% since last hour.
  • Wind: Calm, 10-min avg: Calm, gust: None
  • Barometer: 29.96 in Steady
  • Visibility: 10 miles
  • Rain Today: 0.00 in
  •   

Regional Weather Roundup
for Boston, MA

        
000
ASUS41 KBOX 121310
RWRBOX

REGIONAL WEATHER ROUNDUP
NATIONAL WEATHER SERVICE BOSTON/NORTON MA
900 AM EDT SUN MAY 12 2024

NOTE:  "FAIR" INDICATES FEW OR NO CLOUDS BELOW 12,000 FEET WITH NO 
SIGNIFICANT WEATHER AND/OR OBSTRUCTIONS TO VISIBILITY.

MAZALL-121400-
EASTERN MASSACHUSETTS
  
CITY           SKY/WX    TMP DP  RH WIND       PRES   REMARKS
BOSTON         PTSUNNY   50  42  74 SW3       29.91R                  
BEVERLY        PTSUNNY   49  42  77 CALM      29.90R                  
LAWRENCE       PTSUNNY   48  39  71 CALM      29.92R                  
BEDFORD        PTSUNNY   50  44  80 CALM      29.89S                  
NORWOOD        PTSUNNY   52  41  66 CALM      29.90S                  
MARSHFIELD     PTSUNNY   50  41  71 VRB5      29.90S                  
PLYMOUTH       PTSUNNY   50  40  68 SW3       29.90S                  
TAUNTON        PTSUNNY   51  41  68 VRB3      29.90F                  
NEW BEDFORD    PTSUNNY   52  42  69 CALM      29.90S                  
$$

MAZALL-121400-
CAPE COD AND THE ISLANDS
  
CITY           SKY/WX    TMP DP  RH WIND       PRES   REMARKS
FALMOUTH       NOT AVBL                                               
HYANNIS        MOSUNNY   49  39  68 SW5       29.89S                  
CHATHAM        CLOUDY    50  39  66 CALM      29.91S                  
PROVINCETOWN   MOSUNNY   51  44  77 W7        29.91S                  
NANTUCKET      CLOUDY    47  41  80 S6        29.91R                  
MARTHAS VNYRD  CLOUDY    48  42  80 SE7       29.91S                  
$$
 
MAZALL-121400-
CENTRAL AND WESTERN MASSACHUSETTS
  
CITY           SKY/WX    TMP DP  RH WIND       PRES   REMARKS
WORCESTER      PTSUNNY   49  40  71 CALM      29.88S                  
FITCHBURG      PTSUNNY   51  38  60 CALM      29.90S                  
ORANGE         CLOUDY    48  42  80 CALM      29.90R                  
SPRINGFIELD    CLOUDY    50  42  72 S5        29.87R                  
WESTFIELD      PTSUNNY   51  44  77 SW5       29.89R                  
NORTH ADAMS    NOT AVBL                                               
PITTSFIELD     CLOUDY    46  42  86 CALM      29.86S                  
$$
 
RIZALL-121400-
RHODE ISLAND
  
CITY           SKY/WX    TMP DP  RH WIND       PRES   REMARKS
PROVIDENCE     PTSUNNY   52  44  74 VRB3      29.91S                  
NEWPORT        CLOUDY    47  42  83 S7        29.90S                  
BLOCK ISLAND   CLOUDY    46  40  79 S6        29.92R                  
SMITHFIELD     MOSUNNY   50  43  77 NW6       29.90S                  
WESTERLY       CLOUDY    51  42  71 CALM      29.91S                  
$$
 
CTZALL-121400-
CONNECTICUT
  
CITY           SKY/WX    TMP DP  RH WIND       PRES   REMARKS
BRADLEY INTL   CLOUDY    53  44  71 S3        29.89S                  
HARTFORD       PTSUNNY   52  44  74 S6        29.90S                  
PLAINVILLE     CLOUDY    50  46  86 S3        29.89S                  
BRIDGEPORT     CLOUDY    51  42  71 SW9       29.91R                  
DANBURY        CLOUDY    50  42  74 S6        29.90R                  
GROTON         LGT RAIN  50  44  80 S3        29.91R                  
NEW HAVEN      CLOUDY    53  44  71 SW8       29.90S                  
CHESTER        CLOUDY    52  43  71 CALM      29.90R                  
MERIDEN        CLOUDY    52  42  69 S6        29.90S                  
WILLIMANTIC    PTSUNNY   49  41  74 SE3       29.91R                  
OXFORD         CLOUDY    47  43  86 SW5       29.90R                  
$$

MEZ002-015-021-024-NHZ003-005-008-011-012-014-VTZ005-008-121400-
NORTHERN NEW ENGLAND
  
CITY           SKY/WX    TMP DP  RH WIND       PRES   REMARKS
PORTLAND ME    CLOUDY    49  38  65 SW6       29.89S                  
BANGOR ME      CLOUDY    52  38  58 N6        29.89S                  
CONCORD NH     PTSUNNY   52  40  63 CALM      29.89S                  
MANCHESTER NH  CLOUDY    50  41  71 SW3       29.89R                  
NASHUA NH      PTSUNNY   50  43  77 CALM      29.91R                  
PORTSMOUTH NH  PTSUNNY   51  40  64 SW3       29.89S                  
JAFFREY NH     CLOUDY    48  38  68 CALM      29.89R                  
KEENE NH       CLOUDY    47  41  80 CALM      29.89S                  
BURLINGTON VT  CLOUDY    52  42  69 S13G20    29.86S                  
MT. WASHINGTON CLOUDY    28  16  59 E8          N/A  WCI  20          
$$

NYZ052-076-121400-
EASTERN NEW YORK
  
CITY           SKY/WX    TMP DP  RH WIND       PRES   REMARKS
ALBANY         CLOUDY    51  45  79 S7        29.89R                  
NEW YORK CITY  LGT RAIN  49  43  80 S5        29.90R                  
$$
 
ANZALL-121400-
MARINE OBSERVATIONS
  
STATION/POSITION TIME  TEMP    WIND        PRES    VSBY  WAVE
                       AIR SEA DIR/SP/G                  HT/PER
                 (UTC) (F)     (DEG/KT/KT) (MB)    (MI)  (FT/S)
BOSTON BUOY      1250   48 50  190/  4/  6 1013.3R         4/ 8
BUZZARDS BAY     1200   46     190/  5/  6 1013.4R
NANTUCKET SOUND  1250   49 53  250/  4/  6 1012.4R         1/ 4
MASS BAY-STELLWA NOT AVBL
ISLE OF SHOALS   1200   46     250/  1/  2 1011.9R
S OF BLOCK IS    1256      48                N/A           4/ 8
$$

......................KEY.........................
  SKY/WX - SKY CONDITION/PRESENT WEATHER
  TMP    - TEMPERATURE IN FAHRENHEIT
  DWPT   - DEWPOINT IN FAHRENHEIT
  RH     - RELATIVE HUMIDITY IN PERCENT
  WIND   - DIRECTION AND SPEED IN MPH
  PRES   - MEAN SEA LEVEL PRESSURE IN INCHES OF HG
  WCI    - WIND CHILL INDEX
  VSB    - VISIBILITY IN MILES
  HX     - HEAT INDEX
  TC     - TEMPERATURE IN CELSIUS
  VRB    - VARIABLE WIND DIRECTION
  N/A    - NOT AVAILABLE
  
      

Other recent Regional Weather Roundups

Fri May 17, 11:10pm EDT

Fri May 17, 10:10pm EDT

Fri May 17, 9:10pm EDT

Fri May 17, 8:10pm EDT

Fri May 17, 7:10pm EDT

Fri May 17, 6:10pm EDT

Fri May 17, 5:10pm EDT

Fri May 17, 4:10pm EDT

Fri May 17, 3:10pm EDT

Fri May 17, 2:10pm EDT

Fri May 17, 1:10pm EDT

Fri May 17, 12:10pm EDT

Fri May 17, 11:10am EDT

Fri May 17, 10:10am EDT

Fri May 17, 9:10am EDT

Fri May 17, 8:10am EDT

Fri May 17, 7:10am EDT

Fri May 17, 6:10am EDT

Fri May 17, 5:10am EDT

Fri May 17, 4:10am EDT

Fri May 17, 3:10am EDT

Fri May 17, 2:10am EDT

Fri May 17, 1:10am EDT

Fri May 17, 12:10am EDT

Thu May 16, 11:10pm EDT

Thu May 16, 10:10pm EDT

Thu May 16, 9:10pm EDT

Thu May 16, 8:10pm EDT

Thu May 16, 7:10pm EDT

Thu May 16, 6:10pm EDT

Thu May 16, 5:10pm EDT

Thu May 16, 4:10pm EDT

Thu May 16, 3:10pm EDT

Thu May 16, 2:10pm EDT

Thu May 16, 1:10pm EDT

Thu May 16, 12:10pm EDT

Thu May 16, 11:10am EDT

Thu May 16, 10:10am EDT

Thu May 16, 9:10am EDT

Thu May 16, 8:10am EDT

Thu May 16, 7:10am EDT

Thu May 16, 6:10am EDT

Thu May 16, 5:10am EDT

Thu May 16, 4:10am EDT

Thu May 16, 3:10am EDT

Thu May 16, 2:10am EDT

Thu May 16, 1:10am EDT

Thu May 16, 12:10am EDT

Wed May 15, 11:10pm EDT

Wed May 15, 10:10pm EDT

Wed May 15, 9:10pm EDT

Wed May 15, 8:10pm EDT

Wed May 15, 7:10pm EDT

Wed May 15, 6:10pm EDT

Wed May 15, 5:10pm EDT

Wed May 15, 4:10pm EDT

Wed May 15, 3:10pm EDT

Wed May 15, 2:10pm EDT

Wed May 15, 1:10pm EDT

Wed May 15, 12:10pm EDT

Wed May 15, 11:10am EDT

Wed May 15, 10:10am EDT

Wed May 15, 9:10am EDT

Wed May 15, 8:10am EDT

Wed May 15, 7:10am EDT

Wed May 15, 6:10am EDT

Wed May 15, 5:10am EDT

Wed May 15, 4:10am EDT

Wed May 15, 3:10am EDT

Wed May 15, 2:10am EDT

Wed May 15, 1:10am EDT

Wed May 15, 12:10am EDT

Tue May 14, 11:10pm EDT

Tue May 14, 10:10pm EDT

Tue May 14, 9:10pm EDT

Tue May 14, 8:10pm EDT

Tue May 14, 7:10pm EDT

Tue May 14, 6:10pm EDT

Tue May 14, 5:10pm EDT

Tue May 14, 4:10pm EDT

Tue May 14, 3:10pm EDT

Tue May 14, 2:10pm EDT

Tue May 14, 1:10pm EDT

Tue May 14, 12:10pm EDT

Tue May 14, 11:10am EDT

Tue May 14, 10:10am EDT

Tue May 14, 9:10am EDT

Tue May 14, 8:10am EDT

Tue May 14, 7:10am EDT

Tue May 14, 6:10am EDT

Tue May 14, 5:10am EDT

Tue May 14, 4:10am EDT

Tue May 14, 3:10am EDT

Tue May 14, 2:10am EDT

Tue May 14, 1:10am EDT

Tue May 14, 12:10am EDT

Mon May 13, 11:10pm EDT

Mon May 13, 10:10pm EDT

Mon May 13, 9:10pm EDT

Mon May 13, 8:10pm EDT

Mon May 13, 7:10pm EDT

Mon May 13, 6:10pm EDT

Mon May 13, 5:10pm EDT

Mon May 13, 4:10pm EDT

Mon May 13, 3:10pm EDT

Mon May 13, 2:10pm EDT

Mon May 13, 1:10pm EDT

Mon May 13, 12:10pm EDT

Mon May 13, 11:10am EDT

Mon May 13, 10:10am EDT

Mon May 13, 9:10am EDT

Mon May 13, 8:10am EDT

Mon May 13, 7:10am EDT

Mon May 13, 6:10am EDT

Mon May 13, 5:10am EDT

Mon May 13, 4:10am EDT

Mon May 13, 3:10am EDT

Mon May 13, 2:10am EDT

Mon May 13, 1:10am EDT

Mon May 13, 12:10am EDT

Sun May 12, 11:10pm EDT

Sun May 12, 10:10pm EDT

Sun May 12, 9:10pm EDT

Sun May 12, 8:10pm EDT

Sun May 12, 7:10pm EDT

Sun May 12, 6:10pm EDT

Sun May 12, 5:10pm EDT

Sun May 12, 4:10pm EDT

Sun May 12, 3:10pm EDT

Sun May 12, 2:10pm EDT

Sun May 12, 1:10pm EDT

Sun May 12, 12:10pm EDT

Sun May 12, 11:10am EDT

Sun May 12, 10:10am EDT

Sun May 12, 8:10am EDT

Sun May 12, 7:10am EDT

Sun May 12, 6:10am EDT

Sun May 12, 5:10am EDT

Sun May 12, 4:10am EDT

Sun May 12, 3:10am EDT

Sun May 12, 2:10am EDT

Sun May 12, 1:10am EDT

Sun May 12, 12:10am EDT

Sat May 11, 11:10pm EDT

Sat May 11, 10:10pm EDT

Sat May 11, 9:10pm EDT

Sat May 11, 8:10pm EDT

Sat May 11, 7:10pm EDT

Sat May 11, 6:10pm EDT

Sat May 11, 5:10pm EDT

Sat May 11, 4:10pm EDT

Sat May 11, 3:10pm EDT

Sat May 11, 2:10pm EDT

Sat May 11, 1:10pm EDT

Sat May 11, 12:10pm EDT

Sat May 11, 11:10am EDT

Sat May 11, 10:10am EDT

Sat May 11, 9:10am EDT

Sat May 11, 8:10am EDT

Sat May 11, 7:10am EDT

Sat May 11, 6:10am EDT

Sat May 11, 5:10am EDT

Sat May 11, 4:10am EDT

Sat May 11, 3:10am EDT

Sat May 11, 2:10am EDT

Sat May 11, 1:10am EDT

Sat May 11, 12:10am EDT